Regional Weather Roundup
Issued by NWS

Home | Current Version | Previous Version | Graphics & Text | Print | Product List | Glossary On
Versions: 1 2 3 4 5 6 7 8 9 10 11 12 13 14 15 16 17 18 19 20 21 22 23 24 25 26 27 28 29 30 31 32 33 34 35 36 37 38 39 40 41 42 43 44 45 46 47 48 49 50
000
ASUS43 KDMX 062007
RWRIA

WEATHER ROUNDUP FOR IOWA
NATIONAL WEATHER SERVICE DES MOINES IA
300 PM CDT MON JUL 06 2015

NOTE: "FAIR" INDICATES FEW OR NO CLOUDS BELOW 12,000 FEET WITH NO
SIGNIFICANT WEATHER AND/OR OBSTRUCTIONS TO VISIBILITY.

* - THESE STATIONS ARE NOT NWS STATIONS...THUS NOT UNDER NWS
QUALITY CONTROL.  THEY ALSO DO NOT REPORT WEATHER SUCH
AS PRECIPITATION OR FOG.

IAZ001>003-012>014-020>022-031>034-043>046-062100-
   NORTHWEST IOWA

CITY           SKY/WX    TMP DP  RH WIND       PRES   REMARKS
CARROLL *      CLOUDY    72  72 100 NW6G15    29.91R FOG
CHEROKEE *     CLOUDY    73  66  78 N14G24    29.96R HAZE
DENISON *      LGT RAIN  70  68  94 N10G22    29.92R
LE MARS *      PTSUNNY   75  64  69 N15       29.99R
ORANGE CITY *  MOSUNNY   72  61  68 N17G25    29.99R HAZE
SHELDON *      PTSUNNY   72  72 100 N21G30    29.98R FOG
SIOUX CITY     PTSUNNY   75  63  66 N21G29    29.97R
SPENCER        CLOUDY    73  58  59 N22G29    29.96R HAZE
STORM LAKE *   SUNNY     72  63  73 N18G25    29.96R HAZE
$$

IAZ055>058-069>071-079>083-090>094-062100-
   SOUTHWEST IOWA

CITY           SKY/WX    TMP DP  RH WIND       PRES   REMARKS
ATLANTIC *     CLOUDY    73  72  94 NW5       29.91F
AUDUBON *      MOSUNNY   75  70  83 SW3       29.92F
CLARINDA *     HVY RAIN  75  75 100 N13       29.90R VSB 0
COUNCIL BLFS * CLOUDY    73  72  94 NW5       29.92F
CRESTON *      PTSUNNY   77  73  88 N9        29.88F
HARLAN  *      MOSUNNY   73  73 100 W7        29.95S
LAMONI         HVY RAIN  75  69  81 VRB6      29.86F
RED OAK *      CLOUDY    73  72  94 N13G21    29.89F
SHENANDOAH *   CLOUDY    75  70  83 N14       29.88F
$$

IAZ047>049-059>061-072>074-084-062100-
   CENTRAL IOWA

CITY           SKY/WX    TMP DP  RH WIND       PRES   REMARKS
AMES           LGT RAIN  74  71  91 SW7       29.86F
ANKENY *       LGT RAIN  72  72 100 W6        29.88S
CHARITON *     CLOUDY    77  75  94 W5        29.88S FOG
DES MOINES     LGT RAIN  75  69  81 NW8       29.88S
GRINNELL*      LGT RAIN  77  73  88 SW9       29.88S
KNOXVILLE *    PTSUNNY   77  73  88 W6        29.87S
MARSHALLTOWN   CLOUDY    74  70  87 W12       29.85F
PELLA *        CLOUDY    77  77 100 W5        29.89R
PERRY *        CLOUDY    73  70  88 W9        29.89S
$$

IAZ004>006-015-016-023>025-035-036-062100-
   NORTH CENTRAL IOWA

CITY           SKY/WX    TMP DP  RH WIND       PRES   REMARKS
ALGONA *       MOSUNNY   72  63  73 N16G25    29.92F HAZE
CLARION *      CLOUDY    72  68  88 NW15G25   29.89R
ESTHERVILLE    CLOUDY    71  59  65 N23G32    29.95R HAZE
FORT DODGE *   CLOUDY    70  64  83 N9G21     29.91S
MASON CITY     CLOUDY    74  67  78 NW23G33   29.89R
FOREST CITY *  CLOUDY    68  64  88 N20G25    29.90R
IOWA FALLS *   PTSUNNY   77  70  78 SW13      29.87R
$$

IAZ007>011-017>019-026>030-037>042-050>054-066-062100-
   NORTHEAST IOWA

CITY           SKY/WX    TMP DP  RH WIND       PRES   REMARKS
CEDAR RAPIDS   CLOUDY    78  75  90 S10       29.85F HX  81
CHARLES CITY * LGT RAIN  73  73 100 SW13      29.86R
CLINTON *      CLOUDY    75  72  88 SW3       29.90F
DECORAH *        N/A    N/A N/A N/A MISG        N/A
DUBUQUE        CLOUDY    75  69  81 SW14      29.87S
MONTICELLO *   PTSUNNY   77  73  88 S12G20    29.87S
OELWEIN *      CLOUDY    75  72  88 S13       29.86F
WATERLOO       CLOUDY    80  72  76 SW13      29.83F HX  84
$$

IAZ064-065-067-068-078-062100-
   EAST CENTRAL IOWA

CITY           SKY/WX    TMP DP  RH WIND       PRES   REMARKS
DAVENPORT      CLOUDY    76  73  91 NW3       29.88F THUNDER
IOWA CITY      LGT RAIN  79  75  87 CALM      29.86F HX  83
MT. PLEASANT * PTSUNNY   86  72  62 S13       29.85F HX  92
MUSCATINE *    CLOUDY    82  73  74 S7        29.85F HX  88
QUAD CITIES    CLOUDY    81  73  76 CALM      29.87F HX  86
$$

IAZ062-063-075>077-085>089-095>099-062100-
   SOUTHEAST IOWA

CITY           SKY/WX    TMP DP  RH WIND       PRES   REMARKS
BURLINGTON     CLOUDY    85  76  74 S14       29.87F HX  94
FAIRFIELD *    PTSUNNY   81  75  83 SW3       29.87F HX  86
FORT MADISON * SUNNY     84  75  74 S9        29.88F HX  92
KEOKUK *       SUNNY     86  75  70 SW10G16   29.86F HX  95
OSKALOOSA *      N/A     81  75  83 SW5       29.87S HX  86
CENTERVILLE *  PTSUNNY   81  75  83 S6        29.89S HX  86
OTTUMWA        LGT RAIN  81  76  84 SW8       29.84F HX  87
WASHINGTON *   LGT RAIN  77  75  94 SW7G16    29.88F VSB 1/2
$$

ABBREVIATIONS USED IN REMARKS
   TC - TEMPERATURES IN CELSIUS
  WCI - WIND CHILL INDEX
   HX - HEAT INDEX
  VSB - VISIBILITY
$$




USA.gov is the U.S. government's official web portal to all federal, state and local government web resources and services.